[[{"header":{"parameterUnit":"m.s-1","parameterCategory":1,"la1":30.2991,"la2":30.254,"lo1":-89.0895,"lo2":-89.0444,"dy":0.0017,"dx":0.0017,"nx":28,"ny":28,"refTime":"2023-09-04T03:00:00:Z","depth":0,"parameterNumber":2,"parameterNumberName":"U-component_of_WINDS"},"data":[0,0,0,0,0,0,0,0,0,0,0,0,0,0,0,0,0,0,0,0,0,0,0,0,0,0,0,0,0,0,0,0,0,0,0,0,0,0,0,0,0,0,0,0,0,0,0,0,0,0,0,0,0,0,0,0,0,0,-4.7101,-4.7101,0,-4.7135,-4.7136,-4.7136,-4.7061,-4.7059,-4.7056,-4.7054,-4.7087,-4.709,-4.7093,0,0,0,0,0,0,0,0,0,0,0,0,0,-4.6965,-4.6968,-4.7101,-4.7101,-4.7101,-4.7135,-4.7136,-4.7136,-4.7061,-4.7058,-4.7055,-4.7053,-4.7085,-4.7089,-4.7093,0,0,0,0,0,0,0,0,0,0,0,0,0,-4.7014,-4.6969,-4.71,-4.7068,-4.7066,-4.7135,-4.7136,-4.7136,-4.7062,-4.7058,-4.7055,-4.7051,-4.7084,-4.7089,-4.7093,-4.7195,0,0,-4.7108,-4.711,0,0,0,0,0,0,0,0,-4.7012,-4.7019,-4.7072,-4.7071,-4.7068,-4.709,-4.71,-4.7156,-4.7063,-4.7063,-4.7054,-4.705,-4.709,-4.7094,-4.7109,-4.7197,-4.7198,-4.7108,-4.7111,-4.7113,-4.7114,0,0,0,0,0,0,0,-4.7008,-4.7017,-4.7114,-4.7073,-4.7071,-4.7051,-4.7054,-4.711,-4.7097,-4.7063,-4.7058,-4.7063,-4.7088,-4.7105,-4.7109,-4.7199,-4.7108,-4.7112,-4.7115,-4.7117,-4.7369,-4.7372,0,0,0,0,0,0,-4.7009,-4.7015,-4.7113,-4.7115,-4.703,-4.7056,-4.7059,-4.7087,-4.7096,-4.7094,-4.7066,-4.7059,-4.7098,-4.7104,-4.711,-4.7227,-4.7113,-4.7117,-4.712,-4.7365,-4.737,-4.7374,0,0,0,0,0,0,-4.7007,-4.7019,-4.7112,-4.7064,-4.7074,-4.7062,-4.7093,-4.7089,-4.7105,-4.7098,-4.7095,-4.7085,-4.7096,-4.7103,-4.7174,-4.7227,-4.712,-4.7124,-4.736,-4.7366,-4.7372,-4.7464,0,0,0,0,0,0,-4.7003,-4.7019,-4.7058,-4.7065,-4.7077,-4.7177,-4.7097,-4.7093,-4.7114,-4.7105,-4.7115,-4.7113,-4.7093,-4.7168,-4.7179,-4.7232,-4.7127,-4.7355,-4.7363,-4.737,-4.7456,-4.7472,-4.7486,0,0,0,0,0,-4.6999,-4.7082,-4.706,-4.7073,-4.7126,-4.718,-4.7186,-4.7162,-4.7119,-4.7157,-4.7152,-4.7113,-4.7221,-4.7175,-4.7187,-4.7243,-4.7352,-4.7361,-4.7369,-4.7449,-4.7469,-4.7486,0,0,0,0,0,0,-4.7081,-4.7083,-4.7058,-4.7147,-4.7164,-4.7167,-4.7215,-4.7184,-4.7213,-4.7204,-4.7172,-4.7175,-4.7251,-4.7255,-4.7204,-4.734,-4.7278,-4.729,-4.7335,-4.7354,-4.7369,-4.7365,-4.7131,0,0,0,0,0,-4.7109,-4.7154,-4.7153,-4.7231,-4.7241,-4.7227,-4.725,-4.723,-4.7245,-4.7252,-4.7252,-4.7268,-4.7305,-4.733,-4.7364,-4.7457,-4.7457,-4.7501,-4.7516,-4.7528,-4.7538,-4.7585,-4.7603,-4.7402,-4.7402,-4.7402,0,0,-4.7168,-4.7175,-4.7205,-4.7248,-4.7259,-4.7304,-4.7233,-4.7285,-4.7317,-4.7259,-4.7325,-4.7327,-4.7342,-4.7424,-4.746,-4.7429,-4.7594,-4.7539,-4.7549,-4.7552,-4.7595,-4.7614,-4.7631,-4.7408,-4.7407,-4.7406,0,0,-4.7298,-4.7309,-4.7374,-4.7387,-4.7404,-4.7394,-4.741,-4.7418,-4.7416,-4.7483,-4.744,-4.7478,-4.7543,-4.7555,-4.757,-4.7704,-4.7668,-4.7717,-4.7794,-4.784,-4.7855,-4.7869,-4.7914,-4.7931,-4.7727,-4.7727,-4.7727,0,-4.7369,-4.7437,-4.7412,-4.7466,-4.7485,-4.7436,-4.75,-4.7513,-4.754,-4.7554,-4.7519,-4.7599,-4.7606,-4.7688,-4.7721,-4.7736,-4.7751,-4.7714,-4.7856,-4.7869,-4.7882,-4.7924,-4.7942,-4.7732,-4.7732,-4.7731,-4.7731,0,-4.7521,-4.7569,-4.7619,-4.7647,-4.7672,-4.7731,-4.7714,-4.7742,-4.772,-4.7714,-4.7781,-4.7788,-4.7821,-4.784,-4.782,-4.792,-4.7899,-4.7861,-4.7797,-4.7907,-4.7946,-4.7962,-4.774,-4.7738,-4.7737,-4.7735,0,0,-4.7702,-4.7716,-4.7734,-4.7745,-4.7761,-4.7796,-4.7853,-4.7886,-4.791,-4.7931,-4.7975,-4.8032,-4.7996,-4.8012,-4.7993,-4.8034,-4.8136,-4.799,-4.7989,-4.8014,-4.8244,-4.8271,-4.829,-4.8114,-4.8117,-4.8119,-4.8242,0,-4.7829,-4.7926,-4.7905,-4.8,-4.8042,-4.7996,-4.8044,-4.8058,-4.8054,-4.8088,-4.8082,-4.8121,-4.8073,-4.8082,-4.8121,-4.8116,-4.8181,-4.8107,-4.8153,-4.8154,-4.8147,-4.8311,-4.834,-4.8455,-4.8257,-4.826,-4.8262,0,-4.7989,-4.8016,-4.8115,-4.8122,-4.8139,-4.8183,-4.8211,-4.8245,-4.8259,-4.8253,-4.8272,-4.8244,-4.8298,-4.8237,-4.8309,-4.8259,-4.8277,-4.8277,-4.8281,-4.8282,-4.8213,-4.8313,-4.8491,-4.8507,-4.8286,-4.8284,-4.8283,0,-4.8107,-4.8168,-4.8235,-4.8246,-4.8257,-4.8289,-4.8295,-4.8306,-4.8327,-4.8351,-4.8364,-4.8395,-4.8411,-4.8434,-4.8415,-4.8372,-4.849,-4.8427,-4.8484,-4.8484,-4.8508,-4.8506,-4.8688,-4.8525,-4.8525,-4.8524,-4.8524,0,-4.8249,-4.831,-4.8288,-4.8329,-4.8396,-4.8371,-4.8438,-4.8438,-4.8448,-4.8487,-4.845,-4.8487,-4.846,-4.8495,-4.848,-4.8541,-4.8549,-4.8544,-4.8538,-4.8545,-4.8546,-4.8554,-4.8545,-4.8529,-4.8528,-4.8527,-4.8526,0,-4.8391,-4.8379,-4.8448,-4.8453,-4.8455,-4.8504,-4.8508,-4.8545,-4.8538,-4.8587,-4.8597,-4.8586,-4.8624,-4.8608,-4.8648,-4.8638,-4.8715,-4.8701,-4.8711,-4.8706,-4.8762,-4.8756,-4.8953,-4.8976,-4.8801,-4.8803,-4.8805,0,-4.8481,-4.8527,-4.8537,-4.8561,-4.8569,-4.8608,-4.8629,-4.8606,-4.8629,-4.8649,-4.8683,-4.8718,-4.8745,-4.8808,-4.8803,-4.8833,-4.8817,-4.8884,-4.8821,-4.8826,-4.8815,-4.8811,-4.8814,-4.8896,-4.8898,-4.89,-4.8901,0,-4.8641,-4.8632,-4.8664,-4.8694,-4.8721,-4.8743,-4.8762,-4.8783,-4.8761,-4.8789,-4.8828,-4.8849,-4.889,-4.8925,-4.8951,-4.8956,-4.8924,-4.8921,-4.8935,-4.8941,-4.8944,-4.894,-4.8742,-4.8916,-4.8915,-4.8914,-4.8913,-4.8912,-4.8758,-4.8796,-4.8808,-4.8844,-4.8857,-4.8875,-4.8909,-4.8907,-4.8939,-4.8971,-4.8955,-4.9,-4.9012,-4.9044,-4.9053,-4.9087,-4.906,-4.9082,-4.9086,-4.9091,-4.9097,-4.8941,-4.9092,-4.9092,-4.9091,-4.9091,-4.9091,0,-4.8913,-4.8918,-4.8952,-4.898,-4.9008,-4.8978,-4.8997,-4.9022,-4.9062,-4.9076,-4.9103,-4.9147,-4.9181,-4.9178,-4.9208,-4.9236,-4.9222,-4.9244,-4.924,-4.9241,-4.9121,-4.9104,-4.9254,-4.9254,-4.9254,-4.9254,-4.9254,-4.9254,-4.8997,-4.9059,-4.9051,-4.9118,-4.9123,-4.9167,-4.918,-4.9196,-4.9207,-4.9258,-4.9285,-4.9284,-4.9291,-4.9321,-4.935,-4.9348,-4.9359,-4.9387,-4.9379,-4.9266,-4.925,-4.9234,-4.9218,-4.939,-4.939,-4.9496,-4.9497,-4.9498]},{"header":{"parameterUnit":"m.s-1","parameterCategory":1,"la1":30.2991,"la2":30.254,"lo1":-89.0895,"lo2":-89.0444,"dy":0.0017,"dx":0.0017,"nx":28,"ny":28,"refTime":"2023-09-04T03:00:00:Z","depth":0,"parameterNumber":3,"parameterNumberName":"V-component_of_WINDS"},"data":[0,0,0,0,0,0,0,0,0,0,0,0,0,0,0,0,0,0,0,0,0,0,0,0,0,0,0,0,0,0,0,0,0,0,0,0,0,0,0,0,0,0,0,0,0,0,0,0,0,0,0,0,0,0,0,0,0,0,4.4144,4.4144,0,4.4186,4.4186,4.4186,4.4128,4.4126,4.4124,4.4122,4.416,4.4163,4.4166,0,0,0,0,0,0,0,0,0,0,0,0,0,4.401,4.4012,4.4144,4.4144,4.4145,4.4185,4.4186,4.4187,4.4128,4.4126,4.4123,4.4121,4.4159,4.4163,4.4166,0,0,0,0,0,0,0,0,0,0,0,0,0,4.4061,4.4013,4.4144,4.4121,4.4119,4.4185,4.4186,4.4187,4.4129,4.4126,4.4122,4.412,4.4158,4.4163,4.4167,4.4256,0,0,4.418,4.4182,0,0,0,0,0,0,0,0,4.4058,4.4066,4.4124,4.4123,4.4121,4.4148,4.4153,4.421,4.4129,4.4125,4.4122,4.4118,4.4159,4.4163,4.4177,4.4258,4.426,4.4181,4.4184,4.4185,4.4187,0,0,0,0,0,0,0,4.4055,4.4064,4.416,4.4125,4.4123,4.4107,4.4111,4.4163,4.4159,4.4125,4.4121,4.4127,4.4157,4.4173,4.4178,4.426,4.4181,4.4185,4.4187,4.4189,4.4415,4.4419,0,0,0,0,0,0,4.4055,4.4062,4.4159,4.4161,4.4081,4.4112,4.4116,4.4143,4.4158,4.4157,4.413,4.4124,4.4167,4.4173,4.4179,4.4283,4.4185,4.419,4.4192,4.4412,4.4416,4.442,0,0,0,0,0,0,4.4052,4.4064,4.4157,4.411,4.4121,4.4118,4.4148,4.4145,4.4161,4.4161,4.416,4.4147,4.4165,4.4173,4.4238,4.4284,4.4192,4.4196,4.4408,4.4413,4.4418,4.4494,0,0,0,0,0,0,4.4048,4.4063,4.4098,4.4112,4.4124,4.4217,4.4151,4.4148,4.4169,4.4162,4.4177,4.4177,4.4163,4.4231,4.4242,4.4288,4.4199,4.4404,4.441,4.4416,4.4487,4.4501,4.4513,0,0,0,0,0,4.4044,4.4117,4.41,4.4112,4.4168,4.4219,4.4226,4.421,4.4173,4.4207,4.4208,4.4176,4.4278,4.4238,4.425,4.4298,4.4401,4.4409,4.4416,4.4482,4.4498,4.4512,0,0,0,0,0,0,4.4108,4.4119,4.41,4.418,4.42,4.4209,4.4252,4.4229,4.4258,4.425,4.4228,4.4232,4.4301,4.4306,4.4262,4.4385,4.4333,4.4343,4.4379,4.4395,4.4407,4.4403,4.4203,0,0,0,0,0,4.4132,4.4175,4.4181,4.4251,4.4262,4.4256,4.4278,4.4264,4.4282,4.429,4.4294,4.4312,4.4348,4.4372,4.4405,4.4488,4.449,4.4527,4.454,4.4551,4.4559,4.4602,4.4618,4.4444,4.4444,4.4444,0,0,4.4181,4.4192,4.422,4.4264,4.4278,4.4321,4.4263,4.4311,4.4342,4.4296,4.4358,4.4362,4.4381,4.4455,4.4488,4.4462,4.4608,4.456,4.4569,4.4571,4.4611,4.4628,4.4642,4.445,4.4449,4.4448,0,0,4.4292,4.4306,4.4365,4.438,4.4401,4.4396,4.4411,4.4424,4.4426,4.4488,4.4454,4.449,4.4553,4.4567,4.4582,4.4699,4.4671,4.4711,4.4776,4.4818,4.4832,4.4844,4.4884,4.4899,4.4719,4.472,4.472,0,4.435,4.4414,4.4398,4.4449,4.4468,4.4431,4.449,4.4504,4.4535,4.4549,4.452,4.4597,4.4607,4.4683,4.4712,4.4726,4.474,4.4708,4.4832,4.4844,4.4854,4.4892,4.4908,4.4724,4.4724,4.4723,4.4723,0,4.4483,4.4529,4.4574,4.4606,4.4631,4.4685,4.4676,4.4703,4.4687,4.4685,4.4748,4.4759,4.4793,4.481,4.4795,4.4884,4.4867,4.4836,4.4782,4.4876,4.4911,4.4925,4.4731,4.4729,4.4728,4.4727,0,0,4.4635,4.4657,4.4674,4.4687,4.4708,4.4742,4.4794,4.4829,4.4852,4.4874,4.4916,4.497,4.4941,4.4959,4.4945,4.4982,4.5072,4.4945,4.4945,4.4967,4.5169,4.5192,4.5209,4.5054,4.5057,4.5059,4.5167,0,4.4744,4.4836,4.4823,4.491,4.4951,4.4916,4.4961,4.4978,4.4978,4.5011,4.501,4.5049,4.5008,4.5018,4.5054,4.5054,4.5112,4.5046,4.5091,4.5093,4.5086,4.5227,4.5251,4.5352,4.5181,4.5183,4.5185,0,4.4884,4.4912,4.5004,4.5018,4.5035,4.5076,4.5106,4.5139,4.5157,4.5154,4.5174,4.5154,4.5204,4.5152,4.522,4.5176,4.5194,4.5197,4.52,4.5202,4.5143,4.5231,4.5385,4.5399,4.5206,4.5205,4.5203,0,4.4982,4.5044,4.5107,4.5119,4.5138,4.5167,4.5176,4.5191,4.5213,4.5239,4.5252,4.5284,4.53,4.5325,4.5312,4.5276,4.5383,4.533,4.538,4.538,4.5402,4.5401,4.5559,4.5418,4.5417,4.5417,4.5417,0,4.5105,4.5162,4.5151,4.5189,4.5252,4.5236,4.5298,4.5302,4.5316,4.5354,4.5326,4.5361,4.5344,4.5378,4.5369,4.5426,4.5434,4.5432,4.5428,4.5433,4.5433,4.5443,4.5435,4.5421,4.542,4.542,4.5419,0,4.5225,4.522,4.5286,4.5298,4.5303,4.5348,4.5358,4.5393,4.5391,4.5439,4.5449,4.5445,4.5484,4.5475,4.5517,4.551,4.5582,4.5571,4.5576,4.5573,4.5623,4.5618,4.5791,4.5813,4.5659,4.5661,4.5662,0,4.5303,4.5346,4.5363,4.5387,4.5398,4.5436,4.5458,4.5444,4.5468,4.5492,4.5524,4.556,4.5588,4.5651,4.5651,4.5683,4.5671,4.5729,4.5675,4.5678,4.5669,4.5666,4.5669,4.5739,4.5741,4.5743,4.5744,0,4.544,4.5436,4.5469,4.5502,4.5529,4.5553,4.5575,4.5596,4.5583,4.5611,4.5651,4.5673,4.5716,4.5751,4.5781,4.5788,4.5763,4.5761,4.5774,4.5779,4.5779,4.5778,4.5603,4.5757,4.5756,4.5755,4.5754,4.5753,4.554,4.5576,4.5594,4.5632,4.5647,4.5668,4.5701,4.5704,4.5737,4.5772,4.5761,4.5806,4.5822,4.5859,4.587,4.5904,4.5881,4.5901,4.5905,4.591,4.5915,4.5776,4.5909,4.5909,4.5909,4.5908,4.5908,0,4.5674,4.5684,4.5719,4.5751,4.5781,4.5757,4.578,4.5805,4.5845,4.5863,4.5892,4.5936,4.5971,4.5975,4.6007,4.6033,4.6022,4.6042,4.6038,4.604,4.5934,4.5919,4.605,4.605,4.6049,4.6049,4.6049,4.6049,4.5748,4.5807,4.5805,4.5872,4.5881,4.5925,4.594,4.5959,4.5973,4.6024,4.6053,4.6056,4.6068,4.61,4.6131,4.6131,4.6143,4.6166,4.6162,4.6062,4.6048,4.6034,4.602,4.6169,4.617,4.6265,4.6265,4.6266]}]]